Year,Month,Day,Hour,Minute,Value (Times are PST for windspeed in km/hr)
2017,05,16,00,00,12.20
2017,05,16,00,01,13.90
2017,05,16,00,02,18.30
2017,05,16,00,03,17.70
2017,05,16,00,04,20.70
2017,05,16,00,05,19.50
2017,05,16,00,06,22.00
2017,05,16,00,07,19.60
2017,05,16,00,08,20.90
2017,05,16,00,09,17.20
2017,05,16,00,10,23.40
2017,05,16,00,11,17.00
2017,05,16,00,12,15.30
2017,05,16,00,13,18.30
2017,05,16,00,14,15.20
2017,05,16,00,15,16.30
2017,05,16,00,16,19.40
2017,05,16,00,17,18.70
2017,05,16,00,18,22.80
2017,05,16,00,19,17.30
2017,05,16,00,20,15.70
2017,05,16,00,21,15.70
2017,05,16,00,22,22.50
2017,05,16,00,23,16.40
2017,05,16,00,24,6.60
2017,05,16,00,25,10.90
2017,05,16,00,26,14.80
2017,05,16,00,27,15.80
2017,05,16,00,28,12.50
2017,05,16,00,29,10.70
2017,05,16,00,30,13.00
2017,05,16,00,31,17.20
2017,05,16,00,32,15.40
2017,05,16,00,33,14.80
2017,05,16,00,34,12.20
2017,05,16,00,35,8.80
2017,05,16,00,36,8.00
2017,05,16,00,37,6.90
2017,05,16,00,38,9.70
2017,05,16,00,39,8.80
2017,05,16,00,40,8.10
2017,05,16,00,41,8.50
2017,05,16,00,42,11.80
2017,05,16,00,43,13.40
2017,05,16,00,44,13.10
2017,05,16,00,45,6.70
2017,05,16,00,46,14.40
2017,05,16,00,47,13.60
2017,05,16,00,48,9.10
2017,05,16,00,49,10.50
2017,05,16,00,50,14.90
2017,05,16,00,51,17.00
2017,05,16,00,52,15.30
2017,05,16,00,53,17.20
2017,05,16,00,54,11.30
2017,05,16,00,55,10.70
2017,05,16,00,56,8.50
2017,05,16,00,57,11.00
2017,05,16,00,58,13.40
2017,05,16,00,59,12.20
2017,05,16,01,00,11.90
2017,05,16,01,01,19.70
2017,05,16,01,02,20.60
2017,05,16,01,03,14.50
2017,05,16,01,04,7.40
2017,05,16,01,05,1.80
2017,05,16,01,06,8.90
2017,05,16,01,07,9.20
2017,05,16,01,08,6.90
2017,05,16,01,09,4.70
2017,05,16,01,10,5.20
2017,05,16,01,11,8.20
2017,05,16,01,12,8.50
2017,05,16,01,13,5.20
2017,05,16,01,14,5.70
2017,05,16,01,15,2.70
2017,05,16,01,16,6.40
2017,05,16,01,17,5.80
2017,05,16,01,18,4.60
2017,05,16,01,19,4.50
2017,05,16,01,20,4.90
2017,05,16,01,21,5.10
2017,05,16,01,22,4.50
2017,05,16,01,23,8.10
2017,05,16,01,24,2.90
2017,05,16,01,25,2.20
2017,05,16,01,26,2.60
2017,05,16,01,27,3.50
2017,05,16,01,28,2.90
2017,05,16,01,29,0.90
2017,05,16,01,30,0.60
2017,05,16,01,31,0.10
2017,05,16,01,32,0.00
2017,05,16,01,33,0.00
2017,05,16,01,34,0.00
2017,05,16,01,35,0.00
2017,05,16,01,36,0.00
2017,05,16,01,37,0.00
2017,05,16,01,38,0.00
2017,05,16,01,39,0.00
2017,05,16,01,40,0.00
2017,05,16,01,41,0.00
2017,05,16,01,42,0.00
2017,05,16,01,43,0.00
2017,05,16,01,44,0.00
2017,05,16,01,45,0.00
2017,05,16,01,46,0.00
2017,05,16,01,47,0.00
2017,05,16,01,48,0.00
2017,05,16,01,49,0.00
2017,05,16,01,50,0.00
2017,05,16,01,51,0.00
2017,05,16,01,52,0.00
2017,05,16,01,53,0.00
2017,05,16,01,54,0.00
2017,05,16,01,55,0.80
2017,05,16,01,56,3.60
2017,05,16,01,57,3.80
2017,05,16,01,58,4.50
2017,05,16,01,59,2.10
2017,05,16,02,00,2.20
2017,05,16,02,01,1.50
2017,05,16,02,02,3.40
2017,05,16,02,03,0.70
2017,05,16,02,04,0.20
2017,05,16,02,05,0.00
2017,05,16,02,06,1.10
2017,05,16,02,07,5.70
2017,05,16,02,08,4.30
2017,05,16,02,09,0.70
2017,05,16,02,10,1.70
2017,05,16,02,11,1.10
2017,05,16,02,12,2.40
2017,05,16,02,13,1.60
2017,05,16,02,14,1.30
2017,05,16,02,15,1.50
2017,05,16,02,16,0.00
2017,05,16,02,17,5.70
2017,05,16,02,18,2.70
2017,05,16,02,19,2.60
2017,05,16,02,20,5.00
2017,05,16,02,21,1.40
2017,05,16,02,22,0.90
2017,05,16,02,23,3.80
2017,05,16,02,24,3.80
2017,05,16,02,25,2.10
2017,05,16,02,26,0.00
2017,05,16,02,27,1.70
2017,05,16,02,28,1.90
2017,05,16,02,29,3.50
2017,05,16,02,30,0.20
2017,05,16,02,31,1.80
2017,05,16,02,32,1.30
2017,05,16,02,33,0.00
2017,05,16,02,34,0.00
2017,05,16,02,35,0.00
2017,05,16,02,36,0.00
2017,05,16,02,37,1.20
2017,05,16,02,38,1.00
2017,05,16,02,39,0.00
2017,05,16,02,40,2.40
2017,05,16,02,41,5.90
2017,05,16,02,42,3.10
2017,05,16,02,43,5.10
2017,05,16,02,44,3.50
2017,05,16,02,45,0.50
2017,05,16,02,46,3.30
2017,05,16,02,47,0.40
2017,05,16,02,48,3.00
2017,05,16,02,49,1.00
2017,05,16,02,50,2.70
2017,05,16,02,51,3.30
2017,05,16,02,52,3.20
2017,05,16,02,53,2.70
2017,05,16,02,54,4.70
2017,05,16,02,55,7.00
2017,05,16,02,56,5.80
2017,05,16,02,57,2.80
2017,05,16,02,58,6.60
2017,05,16,02,59,4.60
2017,05,16,03,00,6.10
2017,05,16,03,01,4.60
2017,05,16,03,02,7.20
2017,05,16,03,03,7.60
2017,05,16,03,04,1.40
2017,05,16,03,05,4.60
2017,05,16,03,06,8.20
2017,05,16,03,07,2.70
2017,05,16,03,08,4.70
2017,05,16,03,09,6.30
2017,05,16,03,10,4.20
2017,05,16,03,11,6.50
2017,05,16,03,12,8.00
2017,05,16,03,13,5.20
2017,05,16,03,14,5.50
2017,05,16,03,15,6.60
2017,05,16,03,16,8.00
2017,05,16,03,17,4.20
2017,05,16,03,18,4.80
2017,05,16,03,19,8.30
2017,05,16,03,20,8.70
2017,05,16,03,21,5.80
2017,05,16,03,22,5.90
2017,05,16,03,23,5.50
2017,05,16,03,24,6.10
2017,05,16,03,25,9.70
2017,05,16,03,26,11.00
2017,05,16,03,27,14.00
2017,05,16,03,28,9.60
2017,05,16,03,29,9.80
2017,05,16,03,30,16.30
2017,05,16,03,31,17.70
2017,05,16,03,32,17.70
2017,05,16,03,33,14.70
2017,05,16,03,34,10.20
2017,05,16,03,35,14.80
2017,05,16,03,36,9.60
2017,05,16,03,37,10.70
2017,05,16,03,38,6.60
2017,05,16,03,39,4.80
2017,05,16,03,40,9.10
2017,05,16,03,41,8.50
2017,05,16,03,42,7.30
2017,05,16,03,43,6.60
2017,05,16,03,44,9.70
2017,05,16,03,45,9.70
2017,05,16,03,46,5.10
2017,05,16,03,47,4.30
2017,05,16,03,48,7.00
2017,05,16,03,49,6.30
2017,05,16,03,50,9.80
2017,05,16,03,51,9.60
2017,05,16,03,52,4.20
2017,05,16,03,53,5.90
2017,05,16,03,54,5.10
2017,05,16,03,55,4.40
2017,05,16,03,56,1.70
2017,05,16,03,57,7.40
2017,05,16,03,58,5.40
2017,05,16,03,59,4.10
2017,05,16,04,00,5.10
2017,05,16,04,01,6.90
2017,05,16,04,02,5.20
2017,05,16,04,03,7.00
2017,05,16,04,04,5.50
2017,05,16,04,05,8.90
2017,05,16,04,06,4.00
2017,05,16,04,07,4.60
2017,05,16,04,08,3.30
2017,05,16,04,09,7.20
2017,05,16,04,10,6.40
2017,05,16,04,11,7.40
2017,05,16,04,12,8.40
2017,05,16,04,13,5.30
2017,05,16,04,14,7.90
2017,05,16,04,15,7.00
2017,05,16,04,16,8.90
2017,05,16,04,17,6.40
2017,05,16,04,18,5.20
2017,05,16,04,19,6.10
2017,05,16,04,20,6.30
2017,05,16,04,21,5.20
2017,05,16,04,22,4.80
2017,05,16,04,23,4.00
2017,05,16,04,24,3.90
2017,05,16,04,25,4.00
2017,05,16,04,26,6.50
2017,05,16,04,27,2.90
2017,05,16,04,28,7.10
2017,05,16,04,29,5.10
2017,05,16,04,30,7.30
2017,05,16,04,31,3.70
2017,05,16,04,32,4.20
2017,05,16,04,33,3.00
2017,05,16,04,34,6.30
2017,05,16,04,35,8.00
2017,05,16,04,36,4.50
2017,05,16,04,37,1.20
2017,05,16,04,38,4.50
2017,05,16,04,39,3.50
2017,05,16,04,40,4.80
2017,05,16,04,41,3.90
2017,05,16,04,42,5.90
2017,05,16,04,43,7.60
2017,05,16,04,44,6.40
2017,05,16,04,45,6.50
2017,05,16,04,46,3.10
2017,05,16,04,47,7.50
2017,05,16,04,48,8.40
2017,05,16,04,49,3.80
2017,05,16,04,50,7.60
2017,05,16,04,51,3.60
2017,05,16,04,52,4.80
2017,05,16,04,53,9.80
2017,05,16,04,54,4.50
2017,05,16,04,55,5.80
2017,05,16,04,56,2.70
2017,05,16,04,57,4.90
2017,05,16,04,58,5.30
2017,05,16,04,59,1.80
2017,05,16,05,00,3.30
2017,05,16,05,01,3.80
2017,05,16,05,02,3.30
2017,05,16,05,03,8.80
2017,05,16,05,04,6.40
2017,05,16,05,05,2.10
2017,05,16,05,06,5.40
2017,05,16,05,07,6.60
2017,05,16,05,08,6.70
2017,05,16,05,09,3.00
2017,05,16,05,10,6.70
2017,05,16,05,11,4.80
2017,05,16,05,12,3.70
2017,05,16,05,13,3.90
2017,05,16,05,14,3.70
2017,05,16,05,15,4.10
2017,05,16,05,16,5.70
2017,05,16,05,17,3.90
2017,05,16,05,18,2.60
2017,05,16,05,19,3.70
2017,05,16,05,20,1.30
2017,05,16,05,21,2.40
2017,05,16,05,22,5.10
2017,05,16,05,23,2.90
2017,05,16,05,24,4.50
2017,05,16,05,25,4.60
2017,05,16,05,26,3.30
2017,05,16,05,27,3.50
2017,05,16,05,28,2.60
2017,05,16,05,29,4.00
2017,05,16,05,30,3.60
2017,05,16,05,31,4.50
2017,05,16,05,32,5.70
2017,05,16,05,33,3.20
2017,05,16,05,34,6.10
2017,05,16,05,35,2.90
2017,05,16,05,36,4.80
2017,05,16,05,37,4.50
2017,05,16,05,38,3.60
2017,05,16,05,39,4.90
2017,05,16,05,40,4.90
2017,05,16,05,41,3.50
2017,05,16,05,42,3.70
2017,05,16,05,43,4.20
2017,05,16,05,44,6.00
2017,05,16,05,45,3.50
2017,05,16,05,46,1.90
2017,05,16,05,47,3.20
2017,05,16,05,48,5.00
2017,05,16,05,49,2.90
2017,05,16,05,50,3.40
2017,05,16,05,51,4.70
2017,05,16,05,52,4.60
2017,05,16,05,53,4.50
2017,05,16,05,54,4.50
2017,05,16,05,55,3.30
2017,05,16,05,56,1.60
2017,05,16,05,57,4.20
2017,05,16,05,58,3.20
2017,05,16,05,59,0.90
2017,05,16,06,00,4.80
2017,05,16,06,01,2.10
2017,05,16,06,02,5.10
2017,05,16,06,03,3.00
2017,05,16,06,04,2.50
2017,05,16,06,05,2.70
2017,05,16,06,06,1.20
2017,05,16,06,07,2.00
2017,05,16,06,08,1.10
2017,05,16,06,09,3.70
2017,05,16,06,10,3.20
2017,05,16,06,11,2.90
2017,05,16,06,12,2.80
2017,05,16,06,13,4.00
2017,05,16,06,14,2.60
2017,05,16,06,15,3.20
2017,05,16,06,16,1.50
2017,05,16,06,17,3.60
2017,05,16,06,18,1.60
2017,05,16,06,19,3.60
2017,05,16,06,20,3.60
2017,05,16,06,21,3.60
2017,05,16,06,22,2.80
2017,05,16,06,23,2.70
2017,05,16,06,24,3.00
2017,05,16,06,25,1.70
2017,05,16,06,26,2.70
2017,05,16,06,27,2.10
2017,05,16,06,28,2.10
2017,05,16,06,29,3.20
2017,05,16,06,30,4.50
2017,05,16,06,31,2.30
2017,05,16,06,32,2.10
2017,05,16,06,33,1.60
2017,05,16,06,34,2.50
2017,05,16,06,35,2.10
2017,05,16,06,36,2.20
2017,05,16,06,37,0.00
2017,05,16,06,38,0.00
2017,05,16,06,39,1.90
2017,05,16,06,40,1.80
2017,05,16,06,41,0.00
2017,05,16,06,42,0.20
2017,05,16,06,43,0.30
2017,05,16,06,44,4.30
2017,05,16,06,45,1.40
2017,05,16,06,46,1.40
2017,05,16,06,47,0.30
2017,05,16,06,48,0.00
2017,05,16,06,49,0.90
2017,05,16,06,50,1.60
2017,05,16,06,51,1.00
2017,05,16,06,52,0.00
2017,05,16,06,53,0.00
2017,05,16,06,54,0.00
2017,05,16,06,55,0.00
2017,05,16,06,56,0.00
2017,05,16,06,57,0.00
2017,05,16,06,58,0.80
2017,05,16,06,59,0.10
2017,05,16,07,00,0.70
2017,05,16,07,01,0.10
2017,05,16,07,02,0.00
2017,05,16,07,03,0.00
2017,05,16,07,04,0.00
2017,05,16,07,05,0.00
2017,05,16,07,06,0.00
2017,05,16,07,07,0.00
2017,05,16,07,08,0.00
2017,05,16,07,09,0.20
2017,05,16,07,10,2.00
2017,05,16,07,11,2.90
2017,05,16,07,12,0.50
2017,05,16,07,13,0.00
2017,05,16,07,14,0.00
2017,05,16,07,15,1.80
2017,05,16,07,16,0.50
2017,05,16,07,17,0.20
2017,05,16,07,18,1.50
2017,05,16,07,19,0.30
2017,05,16,07,20,1.60
2017,05,16,07,21,0.70
2017,05,16,07,22,1.00
2017,05,16,07,23,0.10
2017,05,16,07,24,1.40
2017,05,16,07,25,0.70
2017,05,16,07,26,1.30
2017,05,16,07,27,0.40
2017,05,16,07,28,0.10
2017,05,16,07,29,0.40
2017,05,16,07,30,2.40
2017,05,16,07,31,1.10
2017,05,16,07,32,1.00
2017,05,16,07,33,0.20
2017,05,16,07,34,0.40
2017,05,16,07,35,0.00
2017,05,16,07,36,0.00
2017,05,16,07,37,0.00
2017,05,16,07,38,0.00
2017,05,16,07,39,1.20
2017,05,16,07,40,0.80
2017,05,16,07,41,1.10
2017,05,16,07,42,3.40
2017,05,16,07,43,0.10
2017,05,16,07,44,0.00
2017,05,16,07,45,0.00
2017,05,16,07,46,1.50
2017,05,16,07,47,0.20
2017,05,16,07,48,0.10
2017,05,16,07,49,0.10
2017,05,16,07,50,0.10
2017,05,16,07,51,0.10
2017,05,16,07,52,0.90
2017,05,16,07,53,1.80
2017,05,16,07,54,0.20
2017,05,16,07,55,1.80
2017,05,16,07,56,2.40
2017,05,16,07,57,0.50
2017,05,16,07,58,3.00
2017,05,16,07,59,5.40
2017,05,16,08,00,3.70
2017,05,16,08,01,1.70
2017,05,16,08,02,1.10
2017,05,16,08,03,3.50
2017,05,16,08,04,4.30
2017,05,16,08,05,4.60
2017,05,16,08,06,2.60
2017,05,16,08,07,1.50
2017,05,16,08,08,2.60
2017,05,16,08,09,1.30
2017,05,16,08,10,2.30
2017,05,16,08,11,2.90
2017,05,16,08,12,6.00
2017,05,16,08,13,3.10
2017,05,16,08,14,4.20
2017,05,16,08,15,5.10
2017,05,16,08,16,4.80
2017,05,16,08,17,4.10
2017,05,16,08,18,5.70
2017,05,16,08,19,4.70
2017,05,16,08,20,3.60
2017,05,16,08,21,2.40
2017,05,16,08,22,5.10
2017,05,16,08,23,5.90
2017,05,16,08,24,6.70
2017,05,16,08,25,5.20
2017,05,16,08,26,5.20
2017,05,16,08,27,4.60
2017,05,16,08,28,5.80
2017,05,16,08,29,6.00
2017,05,16,08,30,4.10
2017,05,16,08,31,6.20
2017,05,16,08,32,6.20
2017,05,16,08,33,8.60
2017,05,16,08,34,6.90
2017,05,16,08,35,4.20
2017,05,16,08,36,2.20
2017,05,16,08,37,5.00
2017,05,16,08,38,3.40
2017,05,16,08,39,2.10
2017,05,16,08,40,5.40
2017,05,16,08,41,3.20
2017,05,16,08,42,1.70
2017,05,16,08,43,3.80
2017,05,16,08,44,5.00
2017,05,16,08,45,3.10
2017,05,16,08,46,0.90
2017,05,16,08,47,0.40
2017,05,16,08,48,7.00
2017,05,16,08,49,4.60
2017,05,16,08,50,4.20
2017,05,16,08,51,0.10
2017,05,16,08,52,2.70
2017,05,16,08,53,3.90
2017,05,16,08,54,2.30
2017,05,16,08,55,2.70
2017,05,16,08,56,1.70
2017,05,16,08,57,1.10
2017,05,16,08,58,0.50
2017,05,16,08,59,0.50
2017,05,16,09,00,1.40
2017,05,16,09,01,0.70
2017,05,16,09,02,0.00
2017,05,16,09,03,1.50
2017,05,16,09,04,1.40
2017,05,16,09,05,0.70
2017,05,16,09,06,0.00
2017,05,16,09,07,0.00
2017,05,16,09,08,1.40
2017,05,16,09,09,2.20
2017,05,16,09,10,2.00
2017,05,16,09,11,2.70
2017,05,16,09,12,2.10
2017,05,16,09,13,0.40
2017,05,16,09,14,0.40
2017,05,16,09,15,0.80
2017,05,16,09,16,0.50
2017,05,16,09,17,0.00
2017,05,16,09,18,0.00
2017,05,16,09,19,0.00
2017,05,16,09,20,0.00
2017,05,16,09,21,0.00
2017,05,16,09,22,0.10
2017,05,16,09,23,0.20
2017,05,16,09,24,0.50
2017,05,16,09,25,0.60
2017,05,16,09,26,0.30
2017,05,16,09,27,0.00
2017,05,16,09,28,0.00
2017,05,16,09,29,0.00
2017,05,16,09,30,0.00
2017,05,16,09,31,0.00
2017,05,16,09,32,0.00
2017,05,16,09,33,1.20
2017,05,16,09,34,2.00
2017,05,16,09,35,0.80
2017,05,16,09,36,0.60
2017,05,16,09,37,2.60
2017,05,16,09,38,1.60
2017,05,16,09,39,3.10
2017,05,16,09,40,2.10
2017,05,16,09,41,0.80
2017,05,16,09,42,0.90
2017,05,16,09,43,1.70
2017,05,16,09,44,2.50
2017,05,16,09,45,2.10
2017,05,16,09,46,0.00
2017,05,16,09,47,0.20
2017,05,16,09,48,5.20
2017,05,16,09,49,4.20
2017,05,16,09,50,2.00
2017,05,16,09,51,0.80
2017,05,16,09,52,1.70
2017,05,16,09,53,0.20
2017,05,16,09,54,0.90
2017,05,16,09,55,2.10
2017,05,16,09,56,4.40
2017,05,16,09,57,4.00
2017,05,16,09,58,5.10
2017,05,16,09,59,3.10
2017,05,16,10,00,0.00
2017,05,16,10,01,0.00
2017,05,16,10,02,0.10
2017,05,16,10,03,0.00
2017,05,16,10,04,0.00
2017,05,16,10,05,0.10
2017,05,16,10,06,0.10
2017,05,16,10,07,0.00
2017,05,16,10,08,0.00
2017,05,16,10,09,0.00
2017,05,16,10,10,0.00
2017,05,16,10,11,0.00
2017,05,16,10,12,0.00
2017,05,16,10,13,1.20
2017,05,16,10,14,0.00
2017,05,16,10,15,0.00
2017,05,16,10,16,0.00
2017,05,16,10,17,1.70
2017,05,16,10,18,5.70
2017,05,16,10,19,4.90
2017,05,16,10,20,4.60
2017,05,16,10,21,4.60
2017,05,16,10,22,3.00
2017,05,16,10,23,5.00
2017,05,16,10,24,6.40
2017,05,16,10,25,5.70
2017,05,16,10,26,4.20
2017,05,16,10,27,2.90
2017,05,16,10,28,2.70
2017,05,16,10,29,0.20
2017,05,16,10,30,1.90
2017,05,16,10,31,2.40
2017,05,16,10,32,1.10
2017,05,16,10,33,4.30
2017,05,16,10,34,1.80
2017,05,16,10,35,2.00
2017,05,16,10,36,3.00
2017,05,16,10,37,2.80
2017,05,16,10,38,1.20
2017,05,16,10,39,6.80
2017,05,16,10,40,6.30
2017,05,16,10,41,6.10
2017,05,16,10,42,6.10
2017,05,16,10,43,6.60
2017,05,16,10,44,7.50
2017,05,16,10,45,8.40
2017,05,16,10,46,5.80
2017,05,16,10,47,5.20
2017,05,16,10,48,5.90
2017,05,16,10,49,7.50
2017,05,16,10,50,7.20
2017,05,16,10,51,7.90
2017,05,16,10,52,11.20
2017,05,16,10,53,12.10
2017,05,16,10,54,12.30
2017,05,16,10,55,6.30
2017,05,16,10,56,5.80
2017,05,16,10,57,11.90
2017,05,16,10,58,8.20
2017,05,16,10,59,7.00
2017,05,16,11,00,12.00
2017,05,16,11,01,10.40
2017,05,16,11,02,12.60
2017,05,16,11,03,11.60
2017,05,16,11,04,11.00
2017,05,16,11,05,10.60
2017,05,16,11,06,8.90
2017,05,16,11,07,7.50
2017,05,16,11,08,8.20
2017,05,16,11,09,9.80
2017,05,16,11,10,8.00
2017,05,16,11,11,6.90
2017,05,16,11,12,5.50
2017,05,16,11,13,6.60
2017,05,16,11,14,7.90
2017,05,16,11,15,6.10
2017,05,16,11,16,5.90
2017,05,16,11,17,8.30
2017,05,16,11,18,7.80
2017,05,16,11,19,6.70
2017,05,16,11,20,6.10
2017,05,16,11,21,6.90
2017,05,16,11,22,6.50
2017,05,16,11,23,6.30
2017,05,16,11,24,8.80
2017,05,16,11,25,9.40
2017,05,16,11,26,10.10
2017,05,16,11,27,7.30
2017,05,16,11,28,8.70
2017,05,16,11,29,8.60
2017,05,16,11,30,9.70
2017,05,16,11,31,9.20
2017,05,16,11,32,10.00
2017,05,16,11,33,12.00
2017,05,16,11,34,15.40
2017,05,16,11,35,10.00
2017,05,16,11,36,9.80
2017,05,16,11,37,6.70
2017,05,16,11,38,8.00
2017,05,16,11,39,8.80
2017,05,16,11,40,5.20
2017,05,16,11,41,9.60
2017,05,16,11,42,4.10
2017,05,16,11,43,6.70
2017,05,16,11,44,5.20
2017,05,16,11,45,6.90
2017,05,16,11,46,9.90
2017,05,16,11,47,4.60
2017,05,16,11,48,7.20
2017,05,16,11,49,7.00
2017,05,16,11,50,6.40
2017,05,16,11,51,4.00
2017,05,16,11,52,7.80
2017,05,16,11,53,5.50
2017,05,16,11,54,10.70
2017,05,16,11,55,12.90
2017,05,16,11,56,12.60
2017,05,16,11,57,12.10
2017,05,16,11,58,7.30
2017,05,16,11,59,6.90
2017,05,16,12,00,8.40
2017,05,16,12,01,5.70
2017,05,16,12,02,6.40
2017,05,16,12,03,8.90
2017,05,16,12,04,12.30
2017,05,16,12,05,8.20
2017,05,16,12,06,6.10
2017,05,16,12,07,8.50
2017,05,16,12,08,7.40
2017,05,16,12,09,6.90
2017,05,16,12,10,6.20
2017,05,16,12,11,7.10
2017,05,16,12,12,9.20
2017,05,16,12,13,6.20
2017,05,16,12,14,6.30
2017,05,16,12,15,6.70
2017,05,16,12,16,8.10
2017,05,16,12,17,8.30
2017,05,16,12,18,7.90
2017,05,16,12,19,7.80
2017,05,16,12,20,11.40
2017,05,16,12,21,10.00
2017,05,16,12,22,9.70
2017,05,16,12,23,12.10
2017,05,16,12,24,5.90
2017,05,16,12,25,6.00
2017,05,16,12,26,7.70
2017,05,16,12,27,7.90
2017,05,16,12,28,8.50
2017,05,16,12,29,8.90
2017,05,16,12,30,8.60
2017,05,16,12,31,11.90
2017,05,16,12,32,12.70
2017,05,16,12,33,10.90
2017,05,16,12,34,9.10
2017,05,16,12,35,9.80
2017,05,16,12,36,7.40
2017,05,16,12,37,5.40
2017,05,16,12,38,3.10
2017,05,16,12,39,6.70
2017,05,16,12,40,9.10
2017,05,16,12,41,9.30
2017,05,16,12,42,8.20
2017,05,16,12,43,13.30
2017,05,16,12,44,13.80
2017,05,16,12,45,11.00
2017,05,16,12,46,8.30
2017,05,16,12,47,6.40
2017,05,16,12,48,6.90
2017,05,16,12,49,10.60
2017,05,16,12,50,9.80
2017,05,16,12,51,7.20
2017,05,16,12,52,7.60
2017,05,16,12,53,5.50
2017,05,16,12,54,8.00
2017,05,16,12,55,4.20
2017,05,16,12,56,3.40
2017,05,16,12,57,3.10
2017,05,16,12,58,5.30
2017,05,16,12,59,5.00
2017,05,16,13,00,7.00
2017,05,16,13,01,5.40
2017,05,16,13,02,6.90
2017,05,16,13,03,3.20
2017,05,16,13,04,5.10
2017,05,16,13,05,5.10
2017,05,16,13,06,5.30
2017,05,16,13,07,3.60
2017,05,16,13,08,6.70
2017,05,16,13,09,5.00
2017,05,16,13,10,6.30
2017,05,16,13,11,6.20
2017,05,16,13,12,4.80
2017,05,16,13,13,8.00
2017,05,16,13,14,6.00
2017,05,16,13,15,8.10
2017,05,16,13,16,10.20
2017,05,16,13,17,7.60
2017,05,16,13,18,5.90
2017,05,16,13,19,6.30
2017,05,16,13,20,4.20
2017,05,16,13,21,8.90
2017,05,16,13,22,8.40
2017,05,16,13,23,5.50
2017,05,16,13,24,7.70
2017,05,16,13,25,6.20
2017,05,16,13,26,6.10
2017,05,16,13,27,6.80
2017,05,16,13,28,7.50
2017,05,16,13,29,7.50
2017,05,16,13,30,5.00
2017,05,16,13,31,4.80
2017,05,16,13,32,5.50
2017,05,16,13,33,4.80
2017,05,16,13,34,3.80
2017,05,16,13,35,7.00
2017,05,16,13,36,9.70
2017,05,16,13,37,8.40
2017,05,16,13,38,6.10
2017,05,16,13,39,11.10
2017,05,16,13,40,9.40
2017,05,16,13,41,7.60
2017,05,16,13,42,7.20
2017,05,16,13,43,10.70
2017,05,16,13,44,8.50
2017,05,16,13,45,7.30
2017,05,16,13,46,6.90
2017,05,16,13,47,6.80
2017,05,16,13,48,3.00
2017,05,16,13,49,6.40
2017,05,16,13,50,2.10
2017,05,16,13,51,6.00
2017,05,16,13,52,5.10
2017,05,16,13,53,5.00
2017,05,16,13,54,2.70
2017,05,16,13,55,5.60
2017,05,16,13,56,6.60
2017,05,16,13,57,6.20
2017,05,16,13,58,2.20
2017,05,16,13,59,8.50
2017,05,16,14,00,5.70
2017,05,16,14,01,7.00
2017,05,16,14,02,6.00
2017,05,16,14,03,4.70
2017,05,16,14,04,8.10
2017,05,16,14,05,5.50
2017,05,16,14,06,7.00
2017,05,16,14,07,10.70
2017,05,16,14,08,5.10
2017,05,16,14,09,1.90
2017,05,16,14,10,4.40
2017,05,16,14,11,4.10
2017,05,16,14,12,2.60
2017,05,16,14,13,4.40
2017,05,16,14,14,3.30
2017,05,16,14,15,5.30
2017,05,16,14,16,4.90
2017,05,16,14,17,6.10
2017,05,16,14,18,6.30
2017,05,16,14,19,7.30
2017,05,16,14,20,7.60
2017,05,16,14,21,5.10
2017,05,16,14,22,5.30
2017,05,16,14,23,7.30
2017,05,16,14,24,9.10
2017,05,16,14,25,6.80
2017,05,16,14,26,5.20
2017,05,16,14,27,6.20
2017,05,16,14,28,9.50
2017,05,16,14,29,7.30
2017,05,16,14,30,6.90
2017,05,16,14,31,6.30
2017,05,16,14,32,5.50
2017,05,16,14,33,4.20
2017,05,16,14,34,4.50
2017,05,16,14,35,4.80
2017,05,16,14,36,3.50
2017,05,16,14,37,4.50
2017,05,16,14,38,4.00
2017,05,16,14,39,7.60
2017,05,16,14,40,6.50
2017,05,16,14,41,3.50
2017,05,16,14,42,7.30
2017,05,16,14,43,6.70
2017,05,16,14,44,6.20
2017,05,16,14,45,4.80
2017,05,16,14,46,2.30
2017,05,16,14,47,4.50
2017,05,16,14,48,7.20
2017,05,16,14,49,6.80
2017,05,16,14,50,6.00
2017,05,16,14,51,4.00
2017,05,16,14,52,2.10
2017,05,16,14,53,4.30
2017,05,16,14,54,5.40
2017,05,16,14,55,3.30
2017,05,16,14,56,4.80
2017,05,16,14,57,3.50
2017,05,16,14,58,1.50
2017,05,16,14,59,3.30
2017,05,16,15,00,3.30
2017,05,16,15,01,4.90
2017,05,16,15,02,3.90
2017,05,16,15,03,6.70
2017,05,16,15,04,2.40
2017,05,16,15,05,4.00
2017,05,16,15,06,3.00
2017,05,16,15,07,3.90
2017,05,16,15,08,3.60
2017,05,16,15,09,4.80
2017,05,16,15,10,2.40
2017,05,16,15,11,4.20
2017,05,16,15,12,6.60
2017,05,16,15,13,6.40
2017,05,16,15,14,1.90
2017,05,16,15,15,0.80
2017,05,16,15,16,0.00
2017,05,16,15,17,0.00
2017,05,16,15,18,1.20
2017,05,16,15,19,3.80
2017,05,16,15,20,0.80
2017,05,16,15,21,5.20
2017,05,16,15,22,5.40
2017,05,16,15,23,8.10
2017,05,16,15,24,5.30
2017,05,16,15,25,2.10
2017,05,16,15,26,3.30
2017,05,16,15,27,4.00
2017,05,16,15,28,6.10
2017,05,16,15,29,6.10
2017,05,16,15,30,5.30
2017,05,16,15,31,3.90
2017,05,16,15,32,5.00
2017,05,16,15,33,3.70
2017,05,16,15,34,3.70
2017,05,16,15,35,4.90
2017,05,16,15,36,6.00
2017,05,16,15,37,7.50
2017,05,16,15,38,10.70
2017,05,16,15,39,11.50
2017,05,16,15,40,10.60
2017,05,16,15,41,9.60
2017,05,16,15,42,10.80
2017,05,16,15,43,11.40
2017,05,16,15,44,9.90
2017,05,16,15,45,9.20
2017,05,16,15,46,10.90
2017,05,16,15,47,10.30
2017,05,16,15,48,12.70
2017,05,16,15,49,12.10
2017,05,16,15,50,9.90
2017,05,16,15,51,8.00
2017,05,16,15,52,10.30
2017,05,16,15,53,9.90
2017,05,16,15,54,10.70
2017,05,16,15,55,11.10
2017,05,16,15,56,7.40
2017,05,16,15,57,11.80
2017,05,16,15,58,10.60
2017,05,16,15,59,13.40
2017,05,16,16,00,11.40
2017,05,16,16,01,10.40
2017,05,16,16,02,10.70
2017,05,16,16,03,12.80
2017,05,16,16,04,10.50
2017,05,16,16,05,12.30
2017,05,16,16,06,9.70
2017,05,16,16,07,8.10
2017,05,16,16,08,9.40
2017,05,16,16,09,5.30
2017,05,16,16,10,5.80
2017,05,16,16,11,7.60
2017,05,16,16,12,7.90
2017,05,16,16,13,5.40
2017,05,16,16,14,7.70
2017,05,16,16,15,7.00
2017,05,16,16,16,6.10
2017,05,16,16,17,5.90
2017,05,16,16,18,8.30
2017,05,16,16,19,4.70
2017,05,16,16,20,6.10
2017,05,16,16,21,6.30
2017,05,16,16,22,6.40
2017,05,16,16,23,8.70
2017,05,16,16,24,7.90
2017,05,16,16,25,6.40
2017,05,16,16,26,7.60
2017,05,16,16,27,8.20
2017,05,16,16,28,8.90
2017,05,16,16,29,9.40
2017,05,16,16,30,9.10
2017,05,16,16,31,11.10
2017,05,16,16,32,8.90
2017,05,16,16,33,8.20
2017,05,16,16,34,8.10
2017,05,16,16,35,7.20
2017,05,16,16,36,6.30
2017,05,16,16,37,7.70
2017,05,16,16,38,7.90
2017,05,16,16,39,9.40
2017,05,16,16,40,9.10
2017,05,16,16,41,6.80
2017,05,16,16,42,6.60
2017,05,16,16,43,6.90
2017,05,16,16,44,7.20
2017,05,16,16,45,6.10
2017,05,16,16,46,9.20
2017,05,16,16,47,9.80
2017,05,16,16,48,7.80
2017,05,16,16,49,7.40
2017,05,16,16,50,6.80
2017,05,16,16,51,8.70
2017,05,16,16,52,7.60
2017,05,16,16,53,7.40
2017,05,16,16,54,6.60
2017,05,16,16,55,8.20
2017,05,16,16,56,7.80
2017,05,16,16,57,6.30
2017,05,16,16,58,7.00
2017,05,16,16,59,7.00
2017,05,16,17,00,6.40
2017,05,16,17,01,8.10
2017,05,16,17,02,8.10
2017,05,16,17,03,7.60
2017,05,16,17,04,6.80
2017,05,16,17,05,7.80
2017,05,16,17,06,7.20
2017,05,16,17,07,6.80
2017,05,16,17,08,7.30
2017,05,16,17,09,7.90
2017,05,16,17,10,8.20
2017,05,16,17,11,10.60
2017,05,16,17,12,10.30
2017,05,16,17,13,8.10
2017,05,16,17,14,8.40
2017,05,16,17,15,10.70
2017,05,16,17,16,8.40
2017,05,16,17,17,6.90
2017,05,16,17,18,6.20
2017,05,16,17,19,4.50
2017,05,16,17,20,5.30
2017,05,16,17,21,4.30
2017,05,16,17,22,3.10
2017,05,16,17,23,5.40
2017,05,16,17,24,4.50
2017,05,16,17,25,4.90
2017,05,16,17,26,4.80
2017,05,16,17,27,5.70
2017,05,16,17,28,5.80
2017,05,16,17,29,4.90
2017,05,16,17,30,4.00
2017,05,16,17,31,3.60
2017,05,16,17,32,3.70
2017,05,16,17,33,4.40
2017,05,16,17,34,4.00
2017,05,16,17,35,5.20
2017,05,16,17,36,4.70
2017,05,16,17,37,3.70
2017,05,16,17,38,3.50
2017,05,16,17,39,3.40
2017,05,16,17,40,3.60
2017,05,16,17,41,3.50
2017,05,16,17,42,0.50
2017,05,16,17,43,4.50
2017,05,16,17,44,4.30
2017,05,16,17,45,5.50
2017,05,16,17,46,4.20
2017,05,16,17,47,5.20
2017,05,16,17,48,5.70
2017,05,16,17,49,5.10
2017,05,16,17,50,2.40
2017,05,16,17,51,2.90
2017,05,16,17,52,1.40
2017,05,16,17,53,2.30
2017,05,16,17,54,2.60
2017,05,16,17,55,4.10
2017,05,16,17,56,4.50
2017,05,16,17,57,1.80
2017,05,16,17,58,2.70
2017,05,16,17,59,1.30
2017,05,16,18,00,1.80
2017,05,16,18,01,3.00